Location: ?????
(31.8092°N, 35.2590°E)
Time: 03:43:58
(UTC+00:00)

Cosmos 2360 Rocket - Pass Details

Date: 23 October 2021
Orbit: 832 x 846 km, 71.0° (Epoch: 07 December)

Event Time Altitude Azimuth Distance (km) Brightness Sun altitude
Rises 01:58:33 0° 350° (N) 3,409 5.3 -23.9°
Reaches altitude 10° 02:01:13 10° 359° (N) 2,471 4.6 -23.4°
Maximum altitude 02:06:23 35° 64° (ENE) 1,339 3.7 -22.3°
Drops below altitude 10° 02:11:30 10° 129° (SE) 2,458 5.3 -21.2°
Sets 02:14:08 0° 138° (SE) 3,389 6.0 -20.6°
